Temperature
14 14 15 15 15 15 15 15 16 16 16 16 16 17 17 17 17 17 17 18 18 18 18 18 18 18 18 18 18 18 18 18 18 18 18 18 18 18 18 18 18 18 17
14 14 14 14 15 15 15 15 15 15 16 16 16 16 16 17 17 17 17 17 18 18 18 18 18 18 18 18 18 18 18 17 18 18 18 18 18 18 18 18 17 17 17
13 14 14 14 14 14 15 15 15 15 15 16 16 16 16 16 17 17 17 17 17 17 18 18 18 18 18 18 18 18 18 18 17 18 18 18 18 18 18 18 17 17 17
13 13 13 14 14 14 14 14 14 15 15 15 16 16 16 16 16 17 17 17 17 17 17 18 18 18 18 18 18 18 18 18 17 17 17 17 17 17 17 17 17 17 17
13 13 13 13 13 13 14 14 14 14 15 15 15 16 16 16 16 16 17 17 17 17 17 17 18 18 18 17 17 18 18 17 17 17 17 17 17 17 17 17 17 17 17
12 13 13 13 13 13 13 13 14 14 14 15 15 15 16 16 16 16 17 17 17 17 17 17 17 17 18 17 17 17 17 17 17 17 17 17 17 17 17 17 17 17 17
12 12 12 13 13 13 13 13 14 14 14 14 14 15 15 15 16 16 16 17 17 17 17 17 17 17 17 17 17 17 17 17 17 17 17 17 17 17 17 17 17 17 17
12 12 12 12 12 13 13 13 13 13 14 14 14 15 15 15 15 16 16 16 17 17 17 17 17 17 17 17 17 17 17 17 17 17 17 17 17 17 17 17 17 17 17
12 12 12 12 12 12 13 13 13 13 13 14 14 14 15 16 16 16 16 16 16 16 17 17 17 17 17 17 17 17 17 17 17 17 17 17 17 17 17 17 17 17 17
12 12 12 12 12 12 12 13 13 13 13 14 14 14 14 14 15 15 16 16 16 16 16 16 16 17 17 17 17 17 17 17 17 17 17 17 17 17 17 17 17 17 17
12 12 12 12 12 12 12 12 12 13 13 13 13 13 14 14 14 15 15 15 15 16 16 16 16 16 16 16 17 17 17 17 17 17 17 17 17 17 17 17 17 17 17
12 12 12 12 12 12 12 12 12 12 13 13 13 13 13 14 14 14 15 15 15 15 15 15 16 16 16 16 16 17 17 17 17 17 17 17 17 17 17 17 17 17 17
12 12 12 12 12 12 12 12 12 12 13 13 13 13 13 13 13 14 14 14 14 15 15 15 16 16 16 16 16 17 17 17 17 17 17 17 17 17 17 17 17 17 17
12 12 11 12 12 12 12 12 12 12 12 12 12 13 13 13 13 13 13 14 14 14 15 15 15 15 15 15 16 16 16 17 17 17 17 17 17 17 17 17 17 17 17
11 12 12 12 12 12 12 12 12 12 12 12 12 12 13 13 13 13 13 13 13 14 15 15 15 14 15 15 15 16 16 16 16 16 16 16 16 17 16 16 16 16 16
12 12 12 12 12 12 12 12 12 12 12 12 12 12 12 13 13 13 13 13 13 13 13 14 14 14 14 14 15 15 15 16 16 16 16 16 16 16 16 16 16 16 16
12 12 12 12 12 12 12 12 12 12 12 12 12 12 12 12 12 13 13 13 13 13 13 13 14 14 14 14 14 14 15 15 15 16 16 16 16 16 16 16 16 16 16
12 12 12 12 12 12 12 12 12 12 12 12 12 12 12 12 12 12 12 12 13 13 13 13 13 13 13 13 14 14 14 14 15 15 15 16 16 16 16 16 16 16 16
12 12 12 12 12 12 12 12 12 12 12 12 12 12 12 12 12 12 12 12 12 12 12 12 13 13 13 13 13 14 14 14 14 15 15 15 15 15 15 16 16 16 16
12 12 12 12 12 12 12 12 12 12 12 12 12 12 12 12 12 12 12 12 12 12 12 12 12 12 12 13 13 13 13 14 14 14 14 15 15 15 15 15 15 15 15
12 12 12 12 12 12 12 12 12 12 12 12 12 12 12 12 12 12 12 12 12 12 12 12 12 12 12 12 12 13 13 13 13 14 14 14 14 14 14 15 15 15 15
13 12 12 12 12 12 13 13 12 12 12 12 12 12 11 12 12 12 12 12 12 12 12 12 12 12 12 12 12 12 12 13 13 13 13 13 14 14 14 14 14 15 15
13 13 13 12 12 12 13 13 13 12 12 12 12 12 11 11 12 11 12 12 12 12 12 12 12 12 12 12 12 12 12 12 12 13 13 13 13 13 13 14 14 14 14
13 13 13 13 13 13 13 13 13 12 12 12 12 12 12 11 11 12 12 12 12 11 11 12 12 11 12 12 12 12 12 12 12 12 12 12 13 13 13 13 14 14 14
13 13 13 13 13 13 13 13 13 12 12 12 12 12 12 11 12 12 12 11 11 11 11 12 12 12 12 12 12 12 12 12 12 12 12 12 12 13 13 13 13 13 14
14 13 13 13 13 13 13 13 13 12 12 12 12 12 12 12 12 12 12 11 11 11 11 11 11 11 12 12 12 12 11 11 12 12 12 12 12 12 12 13 13 13 13
Wind_Speed
5 4 4 3 4 4 4 5 6 6 6 7 7 7 8 8 8 7 5 7 7 7 7 7 8 9 9 9 9 9 9 10 10 11 11 11 10 10 10 9 9 9 9
5 5 5 4 4 4 4 5 6 6 6 5 7 7 7 8 8 8 7 7 9 8 8 7 8 9 10 11 10 10 10 10 11 11 12 12 11 11 10 10 9 9 10
6 5 5 5 4 4 4 4 5 5 5 6 7 7 7 7 8 9 8 7 8 11 10 9 8 8 10 11 11 11 11 11 11 12 12 12 12 12 11 10 10 10 10
6 5 5 5 4 4 4 4 4 4 5 5 6 6 6 6 8 8 8 8 8 7 10 10 9 8 10 11 12 12 11 12 12 12 12 13 13 12 12 11 11 10 10
6 5 4 5 4 4 4 4 3 4 4 5 5 5 5 5 6 7 8 8 8 7 7 9 10 9 9 11 12 12 13 13 12 12 13 14 14 13 13 12 12 11 11
6 6 4 5 4 4 3 4 4 3 3 4 5 5 5 5 6 6 7 6 6 8 7 7 8 10 11 11 12 12 13 13 13 13 13 14 14 14 14 13 13 12 11
6 5 4 4 4 3 3 4 3 4 3 3 3 4 5 6 6 5 6 6 6 7 7 8 8 8 9 13 13 13 13 14 14 14 14 14 15 15 15 15 14 14 13
5 5 4 4 3 3 3 3 3 3 3 2 3 3 3 5 6 6 6 5 6 6 7 8 9 9 8 9 12 15 14 14 14 14 15 16 16 16 15 15 15 15 14
4 5 5 4 3 3 3 3 3 3 3 3 2 2 3 3 3 5 5 6 5 5 6 6 8 9 9 9 9 15 15 15 15 15 15 16 17 17 17 17 16 16 16
4 4 4 4 3 3 3 3 3 3 3 2 2 3 3 2 2 2 4 4 4 5 6 6 7 7 9 8 8 9 14 15 16 16 16 16 17 17 18 18 18 17 17
4 4 4 4 3 3 3 3 3 3 3 3 2 2 3 3 4 3 2 2 3 4 4 5 5 5 7 8 8 9 13 15 16 16 17 17 17 18 19 19 19 19 18
4 4 4 4 3 3 3 3 3 3 3 3 3 2 2 2 3 2 2 2 2 2 3 3 4 4 5 6 8 5 10 12 14 15 16 17 17 18 19 19 19 19 19
4 5 5 5 4 4 4 3 3 2 2 2 3 3 3 3 3 3 2 2 2 2 2 3 3 3 4 5 5 4 8 10 11 13 15 16 17 18 19 19 19 20 20
4 5 5 5 4 4 3 2 2 2 2 2 3 3 3 3 3 3 2 2 3 3 3 3 2 3 3 4 3 4 7 10 10 11 12 14 16 17 18 19 19 19 19
4 5 5 5 4 3 3 2 2 2 2 2 2 2 2 2 3 3 2 3 3 3 3 2 1 1 2 2 2 5 6 7 9 9 10 12 14 16 17 17 18 18 19
5 5 5 5 4 3 2 2 2 2 2 2 2 2 2 2 2 2 3 3 3 3 3 2 2 2 3 3 2 4 5 4 8 9 9 10 12 14 15 17 17 18 18
4 4 4 5 5 4 3 2 2 2 2 2 2 2 2 1 1 2 2 3 3 4 5 5 4 4 4 4 3 4 5 5 6 8 9 10 11 12 14 15 17 18 18
4 4 4 4 4 4 4 3 3 2 2 2 2 2 1 1 1 2 2 3 3 4 5 5 5 4 5 5 4 5 4 5 5 6 9 10 11 12 13 14 15 17 17
3 3 3 4 4 4 4 3 2 2 2 2 2 2 2 2 2 2 2 3 3 3 4 5 5 4 5 4 5 5 5 5 6 6 8 10 11 12 13 14 14 15 16
3 3 3 3 3 3 3 3 2 2 2 2 2 2 3 3 3 2 2 3 3 3 3 4 4 4 4 4 4 5 5 5 5 5 5 6 9 13 14 14 14 15 15
2 3 3 3 3 3 3 4 3 3 2 2 2 2 3 3 5 4 3 3 3 3 3 4 4 4 4 4 4 4 5 5 6 5 5 5 6 7 9 13 15 15 15
2 2 3 2 3 2 4 5 5 3 2 2 2 2 2 1 1 1 2 3 4 4 3 3 4 4 5 5 4 5 5 5 5 3 5 5 5 6 6 7 9 12 14
2 3 3 2 2 2 1 3 4 3 3 3 3 2 2 2 3 3 1 3 2 2 4 5 4 5 5 5 5 5 6 6 6 4 4 6 5 6 6 6 8 12 13
3 3 3 3 2 2 1 3 5 3 2 2 2 2 2 3 4 4 3 2 2 2 2 4 3 4 4 5 5 6 7 6 6 4 4 5 5 6 5 5 8 11 12
4 4 3 3 3 2 2 3 6 3 2 2 2 2 2 2 4 5 3 3 3 2 2 3 4 5 6 6 6 5 5 5 5 4 4 4 4 5 5 6 6 10 12
4 4 4 4 3 3 0 2 7 3 3 2 2 1 1 3 5 6 4 3 4 4 4 3 3 4 5 4 5 5 5 5 5 4 3 3 4 3 4 4 4 4 7
Wind_Direction
293 290 282 278 273 266 250 247 249 239 238 240 240 241 247 238 239 235 216 180 222 241 241 233 228 222 215 206 199 195 190 186 184 180 179 177 173 168 166 164 164 164 161
297 294 284 278 277 273 270 260 251 242 236 234 240 243 249 249 245 238 237 203 206 225 236 236 229 223 215 206 201 196 192 189 188 184 181 179 177 174 172 171 170 169 167
303 298 292 286 285 281 273 267 260 248 237 232 233 238 239 245 247 241 235 235 216 206 218 227 227 224 217 208 202 197 194 191 187 187 184 181 180 177 176 177 177 175 173
309 302 293 289 288 284 276 264 257 246 240 237 237 234 237 232 239 239 236 226 226 221 204 206 216 218 216 212 205 199 197 194 190 191 189 185 183 182 181 182 182 180 178
316 308 300 296 291 281 275 269 254 253 246 239 241 235 239 237 235 230 233 232 224 224 219 181 198 209 210 211 209 204 201 199 197 196 195 190 189 188 187 187 186 185 184
323 316 302 298 297 280 275 271 265 254 255 245 244 240 233 237 235 228 233 233 235 229 221 206 204 202 203 207 207 207 205 203 202 201 199 196 194 194 194 192 191 190 190
325 317 307 307 300 286 280 273 265 253 246 246 246 243 234 230 233 224 227 230 229 232 223 212 219 212 198 200 205 207 208 206 206 206 203 201 199 198 197 195 196 196 197
327 315 311 303 299 289 280 277 266 261 251 229 237 239 226 215 222 221 217 224 232 224 229 223 216 212 218 200 194 201 210 209 210 210 208 205 204 202 201 201 202 203 203
328 321 318 312 307 296 293 283 272 263 260 239 231 237 240 232 209 206 210 212 219 226 226 230 227 221 219 215 199 196 205 210 211 214 214 211 209 208 206 207 207 208 207
336 330 321 315 315 311 301 286 280 271 266 258 237 243 262 295 253 203 199 205 214 224 229 225 230 228 228 225 214 196 197 208 212 215 218 218 217 214 211 211 211 212 211
347 343 331 324 322 316 312 303 290 275 264 266 258 244 247 254 262 254 219 208 216 222 229 233 234 234 236 233 227 210 195 207 213 217 220 221 222 221 218 215 215 215 216
350 357 340 329 325 323 314 304 289 273 270 269 266 258 250 249 251 252 250 245 246 247 245 241 241 239 239 244 235 194 196 210 217 220 222 223 223 223 223 220 218 218 219
349 351 341 331 330 327 320 306 292 287 270 267 265 266 262 262 265 263 251 258 266 265 256 239 228 230 234 239 230 183 206 212 219 224 226 226 225 224 225 224 222 222 222
351 346 339 335 333 328 321 312 297 296 292 278 265 265 264 257 254 253 252 251 252 251 240 236 235 227 232 236 223 222 221 205 216 226 230 228 227 225 225 225 225 224 224
349 348 342 340 344 339 329 329 321 321 318 303 283 261 260 252 247 245 246 255 256 258 260 243 228 225 261 254 214 237 238 199 208 222 231 233 230 227 225 223 225 226 226
351 350 354 354 359 358 342 336 328 333 311 318 298 275 263 252 245 238 229 232 244 254 264 268 270 268 280 271 235 256 248 210 216 220 228 234 233 230 228 225 223 224 226
351 359 6 3 6 7 3 356 349 352 338 332 305 284 279 282 260 253 244 235 234 241 254 267 271 269 269 269 265 263 252 247 230 212 224 233 236 234 233 231 226 225 225
357 3 10 13 12 8 6 4 3 6 4 348 336 331 327 320 294 276 261 258 253 251 257 267 271 273 273 272 268 264 258 249 248 216 221 232 236 236 235 234 232 228 225
352 2 7 12 12 9 8 5 6 12 16 9 357 349 344 328 296 284 267 266 266 263 258 259 270 276 275 273 270 265 258 258 254 236 222 226 230 234 235 234 232 229 226
342 348 357 4 5 2 358 4 11 18 19 16 1 351 344 338 325 310 278 264 263 263 259 260 265 271 274 276 267 265 262 253 253 250 241 234 228 229 231 230 229 228 228
322 337 342 349 359 355 357 354 355 359 6 7 8 10 10 2 352 333 318 305 284 269 258 260 267 274 276 273 268 266 266 269 262 248 247 241 233 235 226 224 226 228 229
299 315 322 333 343 349 20 348 323 337 345 355 2 360 9 355 13 293 311 327 321 297 282 269 270 274 280 279 280 274 268 265 263 240 246 251 243 245 240 236 214 214 221
273 286 295 305 313 4 18 321 310 314 330 342 347 348 358 355 329 334 221 210 242 260 275 282 282 285 289 292 281 274 272 269 269 267 263 261 249 251 247 239 210 215 220
263 270 284 291 293 308 284 284 288 278 304 322 327 328 327 343 358 342 326 317 325 315 289 276 286 292 296 298 286 279 281 277 273 261 249 259 253 255 258 246 208 214 220
257 260 268 276 276 267 211 261 278 270 275 288 305 325 325 340 26 329 307 315 322 324 217 234 283 289 298 297 292 278 274 269 269 259 235 252 267 269 264 251 221 209 223
253 259 259 265 272 281 139 257 276 262 268 278 284 278 54 342 355 330 309 313 317 330 327 308 262 247 264 253 246 262 274 277 279 276 247 247 266 269 266 245 240 231 232
Height
1509 1509 1508 1508 1508 1508 1508 1508 1509 1510 1511 1513 1514 1515 1516 1518 1519 1520 1521 1520 1522 1523 1524 1525 1526 1527 1528 1530 1531 1532 1534 1535 1537 1538 1540 1542 1543 1545 1547 1548 1549 1551 1552
1506 1506 1506 1505 1505 1505 1505 1505 1506 1506 1507 1509 1510 1512 1513 1514 1516 1517 1518 1519 1519 1521 1522 1523 1525 1526 1527 1528 1530 1531 1533 1534 1536 1538 1539 1541 1543 1545 1546 1548 1549 1551 1552
1504 1503 1503 1503 1503 1503 1503 1503 1503 1503 1504 1505 1506 1508 1509 1511 1512 1514 1516 1517 1518 1519 1520 1521 1523 1524 1525 1527 1528 1530 1532 1533 1535 1537 1539 1541 1542 1544 1546 1547 1549 1550 1552
1502 1501 1500 1500 1500 1500 1500 1500 1500 1500 1501 1502 1503 1505 1506 1507 1508 1511 1512 1514 1516 1517 1518 1519 1521 1522 1523 1525 1527 1528 1530 1532 1534 1536 1538 1540 1541 1543 1545 1547 1548 1550 1551
1500 1499 1498 1497 1497 1497 1497 1498 1498 1498 1498 1499 1500 1501 1503 1504 1505 1507 1509 1512 1513 1514 1516 1516 1518 1520 1521 1523 1525 1526 1528 1530 1532 1534 1536 1538 1540 1542 1544 1546 1547 1549 1550
1498 1497 1496 1495 1495 1495 1494 1495 1495 1495 1496 1496 1497 1498 1499 1501 1502 1504 1506 1508 1510 1512 1514 1515 1516 1518 1519 1521 1522 1524 1526 1528 1530 1532 1534 1537 1539 1541 1542 1544 1546 1548 1549
1496 1495 1494 1493 1493 1493 1492 1493 1493 1493 1494 1494 1495 1496 1497 1498 1500 1501 1503 1505 1507 1508 1510 1512 1514 1516 1517 1518 1520 1522 1524 1526 1528 1530 1532 1534 1536 1538 1540 1542 1544 1546 1548
1494 1494 1493 1492 1491 1491 1491 1491 1491 1491 1492 1492 1493 1494 1495 1497 1496 1498 1499 1501 1503 1505 1507 1510 1511 1513 1515 1516 1517 1519 1521 1523 1525 1528 1530 1532 1534 1536 1538 1540 1542 1544 1545
1493 1492 1491 1491 1490 1490 1490 1489 1490 1490 1490 1491 1491 1492 1493 1493 1494 1495 1496 1498 1500 1502 1504 1506 1508 1510 1512 1514 1515 1516 1518 1520 1523 1525 1527 1529 1531 1533 1535 1537 1539 1541 1543
1493 1491 1490 1489 1489 1489 1488 1488 1488 1488 1488 1489 1489 1490 1491 1492 1492 1493 1494 1495 1497 1499 1501 1502 1505 1507 1509 1510 1512 1513 1515 1517 1520 1522 1524 1526 1528 1530 1532 1534 1536 1538 1540
1492 1491 1490 1489 1488 1488 1487 1487 1486 1487 1487 1488 1488 1488 1489 1490 1491 1491 1492 1493 1495 1496 1497 1499 1501 1503 1505 1507 1508 1510 1512 1514 1516 1518 1520 1522 1525 1527 1529 1531 1533 1535 1537
1493 1491 1490 1489 1488 1487 1487 1486 1485 1485 1486 1486 1486 1487 1488 1488 1489 1490 1490 1491 1493 1494 1495 1496 1498 1499 1501 1503 1504 1506 1508 1511 1513 1515 1517 1519 1521 1523 1525 1527 1529 1531 1533
1493 1491 1489 1488 1487 1486 1485 1485 1484 1484 1485 1485 1485 1486 1486 1487 1488 1489 1489 1490 1491 1492 1492 1494 1495 1496 1497 1499 1500 1502 1504 1506 1508 1510 1512 1515 1517 1519 1521 1523 1524 1526 1528
1493 1491 1489 1488 1486 1485 1485 1484 1484 1484 1484 1484 1484 1484 1484 1485 1486 1487 1488 1489 1489 1490 1491 1491 1492 1493 1494 1495 1497 1498 1500 1502 1504 1506 1508 1510 1512 1514 1516 1518 1520 1522 1523
1492 1490 1489 1487 1486 1485 1484 1484 1483 1483 1483 1483 1483 1483 1483 1484 1485 1485 1486 1487 1489 1489 1489 1489 1490 1490 1491 1492 1493 1494 1496 1497 1499 1501 1503 1505 1507 1509 1511 1513 1515 1517 1519
1492 1491 1489 1487 1486 1485 1484 1483 1483 1483 1483 1482 1482 1482 1482 1483 1483 1484 1484 1485 1486 1487 1487 1487 1488 1488 1489 1489 1489 1490 1492 1493 1494 1496 1498 1500 1502 1504 1506 1508 1509 1511 1513
1493 1491 1489 1488 1487 1485 1484 1484 1483 1483 1482 1482 1482 1482 1482 1482 1482 1482 1483 1483 1484 1485 1485 1485 1485 1486 1486 1486 1486 1487 1487 1488 1490 1491 1493 1494 1496 1498 1500 1502 1504 1506 1507
1493 1492 1490 1489 1487 1486 1485 1484 1483 1483 1482 1482 1481 1481 1481 1481 1480 1481 1481 1481 1482 1482 1482 1482 1482 1483 1483 1483 1483 1483 1484 1484 1485 1486 1487 1488 1490 1492 1494 1496 1498 1500 1501
1494 1493 1491 1490 1489 1487 1486 1485 1484 1483 1483 1482 1481 1481 1481 1480 1480 1480 1479 1479 1479 1479 1479 1480 1480 1480 1480 1480 1480 1480 1480 1480 1481 1481 1482 1483 1484 1486 1488 1490 1491 1493 1495
1494 1493 1492 1491 1489 1488 1487 1486 1485 1484 1483 1482 1481 1481 1480 1480 1479 1479 1478 1478 1477 1477 1477 1477 1477 1477 1477 1476 1476 1476 1477 1477 1477 1477 1477 1478 1479 1480 1481 1483 1485 1487 1488
1494 1493 1492 1491 1490 1488 1487 1486 1485 1485 1484 1483 1482 1481 1480 1479 1478 1477 1477 1476 1476 1476 1475 1475 1475 1474 1474 1474 1473 1473 1473 1473 1473 1473 1473 1474 1474 1474 1475 1477 1478 1480 1482
1494 1493 1492 1491 1490 1489 1487 1486 1485 1484 1484 1483 1482 1481 1480 1479 1478 1476 1476 1475 1474 1474 1473 1473 1473 1472 1471 1471 1470 1470 1470 1470 1470 1470 1469 1469 1470 1470 1470 1471 1472 1474 1475
1493 1492 1491 1491 1490 1489 1487 1486 1485 1484 1483 1483 1482 1481 1480 1478 1477 1477 1475 1474 1473 1472 1472 1471 1471 1470 1469 1468 1467 1467 1467 1466 1466 1466 1465 1465 1465 1465 1466 1466 1467 1468 1469
1492 1491 1491 1490 1489 1488 1487 1486 1485 1484 1483 1482 1481 1480 1479 1478 1477 1476 1475 1474 1473 1472 1471 1470 1469 1468 1467 1466 1465 1464 1463 1463 1462 1462 1462 1462 1462 1461 1461 1461 1462 1462 1463
1491 1490 1489 1489 1488 1487 1486 1485 1484 1484 1483 1482 1481 1480 1479 1478 1476 1475 1474 1473 1472 1471 1469 1468 1467 1465 1464 1463 1462 1462 1461 1460 1459 1459 1459 1458 1458 1457 1457 1457 1457 1457 1458
1489 1488 1488 1487 1486 1486 1485 1484 1483 1483 1482 1482 1480 1479 1477 1476 1475 1474 1474 1473 1472 1470 1469 1467 1466 1464 1462 1461 1460 1459 1459 1458 1457 1457 1456 1455 1454 1454 1454 1453 1453 1453 1453